QPF
0.00 0.00 0.00 0.00 0.00 0.00 0.00 0.00 0.00 0.00 0.00 0.00 0.00 0.00 0.00 0.00 0.00 0.00 0.00 0.00 0.00 0.00 0.00 0.00 0.00 0.00 0.00 0.00 0.00 0.00 0.00 0.00 0.00 0.00 0.00 0.00 0.00 0.00 0.00 0.00 0.00 0.03 0.04 0.05
0.00 0.00 0.00 0.00 0.00 0.00 0.00 0.00 0.00 0.00 0.00 0.00 0.00 0.00 0.00 0.00 0.00 0.00 0.00 0.00 0.00 0.00 0.00 0.00 0.00 0.00 0.00 0.00 0.00 0.00 0.00 0.00 0.00 0.00 0.00 0.00 0.00 0.00 0.00 0.00 0.00 0.01 0.03 0.05
0.00 0.00 0.00 0.00 0.00 0.00 0.00 0.00 0.00 0.00 0.00 0.00 0.00 0.00 0.00 0.00 0.00 0.00 0.00 0.00 0.00 0.00 0.00 0.00 0.00 0.00 0.00 0.00 0.00 0.00 0.00 0.00 0.00 0.00 0.00 0.00 0.00 0.00 0.00 0.00 0.00 0.00 0.02 0.05
0.00 0.00 0.00 0.00 0.00 0.00 0.00 0.00 0.00 0.00 0.00 0.00 0.00 0.00 0.00 0.00 0.00 0.00 0.00 0.00 0.00 0.00 0.00 0.00 0.00 0.00 0.00 0.00 0.00 0.00 0.00 0.00 0.00 0.00 0.00 0.00 0.00 0.00 0.00 0.00 0.00 0.00 0.01 0.04
0.00 0.00 0.00 0.00 0.00 0.00 0.00 0.00 0.00 0.00 0.00 0.00 0.00 0.00 0.00 0.00 0.00 0.00 0.00 0.00 0.00 0.00 0.00 0.00 0.00 0.00 0.00 0.00 0.00 0.00 0.00 0.00 0.00 0.00 0.00 0.00 0.00 0.00 0.00 0.00 0.00 0.00 0.00 0.02
0.00 0.00 0.00 0.00 0.00 0.00 0.00 0.00 0.00 0.00 0.00 0.00 0.00 0.00 0.00 0.00 0.00 0.00 0.00 0.00 0.00 0.00 0.00 0.00 0.00 0.00 0.00 0.00 0.00 0.00 0.00 0.00 0.00 0.00 0.00 0.00 0.00 0.00 0.00 0.00 0.00 0.00 0.00 0.00
0.00 0.00 0.00 0.00 0.00 0.00 0.00 0.00 0.00 0.00 0.00 0.00 0.00 0.00 0.00 0.00 0.00 0.00 0.00 0.00 0.00 0.00 0.00 0.00 0.00 0.00 0.00 0.00 0.00 0.00 0.00 0.00 0.00 0.00 0.00 0.00 0.00 0.00 0.00 0.00 0.00 0.00 0.00 0.00
0.00 0.00 0.00 0.00 0.00 0.00 0.00 0.00 0.00 0.00 0.00 0.00 0.00 0.00 0.00 0.00 0.00 0.00 0.00 0.00 0.00 0.00 0.00 0.00 0.00 0.00 0.00 0.00 0.00 0.00 0.00 0.00 0.00 0.00 0.00 0.00 0.00 0.00 0.00 0.00 0.00 0.00 0.00 0.00
0.00 0.00 0.00 0.00 0.00 0.00 0.00 0.00 0.00 0.00 0.00 0.00 0.00 0.00 0.00 0.00 0.00 0.00 0.00 0.00 0.00 0.00 0.00 0.00 0.00 0.00 0.00 0.00 0.00 0.00 0.00 0.00 0.00 0.00 0.00 0.00 0.00 0.00 0.00 0.00 0.00 0.00 0.00 0.00
0.00 0.00 0.00 0.00 0.00 0.00 0.00 0.00 0.00 0.00 0.00 0.00 0.00 0.00 0.00 0.00 0.00 0.00 0.00 0.00 0.00 0.00 0.00 0.00 0.00 0.00 0.00 0.00 0.00 0.00 0.00 0.00 0.00 0.00 0.00 0.00 0.00 0.00 0.00 0.00 0.00 0.00 0.00 0.00
0.00 0.00 0.00 0.00 0.00 0.00 0.00 0.00 0.00 0.00 0.00 0.00 0.00 0.00 0.00 0.00 0.00 0.00 0.00 0.00 0.00 0.00 0.00 0.00 0.00 0.00 0.00 0.00 0.00 0.00 0.00 0.00 0.00 0.00 0.00 0.00 0.00 0.00 0.00 0.00 0.01 0.00 0.00 0.00
0.00 0.00 0.00 0.00 0.00 0.00 0.00 0.00 0.00 0.00 0.00 0.00 0.00 0.00 0.00 0.00 0.00 0.00 0.00 0.00 0.00 0.00 0.00 0.00 0.00 0.00 0.00 0.00 0.00 0.00 0.00 0.00 0.00 0.00 0.00 0.00 0.00 0.00 0.00 0.00 0.01 0.01 0.01 0.01
0.00 0.00 0.00 0.00 0.00 0.00 0.00 0.00 0.00 0.00 0.00 0.00 0.00 0.00 0.00 0.00 0.00 0.00 0.00 0.00 0.00 0.00 0.00 0.00 0.00 0.00 0.00 0.00 0.00 0.00 0.00 0.00 0.00 0.00 0.00 0.00 0.00 0.00 0.00 0.00 0.00 0.00 0.00 0.01
0.00 0.00 0.00 0.00 0.00 0.00 0.00 0.00 0.00 0.00 0.00 0.00 0.00 0.00 0.00 0.00 0.00 0.00 0.00 0.00 0.00 0.00 0.00 0.00 0.00 0.00 0.00 0.00 0.00 0.00 0.00 0.00 0.00 0.00 0.00 0.00 0.00 0.00 0.00 0.00 0.00 0.00 0.00 0.00
0.00 0.00 0.00 0.00 0.00 0.00 0.00 0.00 0.00 0.00 0.00 0.00 0.00 0.00 0.00 0.00 0.00 0.00 0.00 0.00 0.00 0.00 0.00 0.00 0.00 0.00 0.00 0.00 0.00 0.00 0.00 0.00 0.00 0.00 0.00 0.00 0.00 0.00 0.00 0.00 0.00 0.00 0.00 0.00
0.00 0.00 0.00 0.00 0.00 0.00 0.00 0.00 0.00 0.00 0.00 0.00 0.00 0.00 0.00 0.00 0.00 0.00 0.00 0.00 0.00 0.00 0.00 0.00 0.00 0.00 0.00 0.00 0.00 0.00 0.00 0.00 0.00 0.00 0.00 0.00 0.00 0.00 0.00 0.00 0.00 0.00 0.00 0.00
0.00 0.00 0.00 0.00 0.00 0.00 0.00 0.00 0.00 0.00 0.00 0.00 0.00 0.00 0.00 0.00 0.00 0.00 0.00 0.00 0.00 0.00 0.00 0.00 0.00 0.00 0.00 0.00 0.00 0.00 0.00 0.00 0.00 0.00 0.00 0.00 0.00 0.00 0.00 0.00 0.00 0.00 0.00 0.00
0.00 0.00 0.00 0.00 0.00 0.00 0.00 0.00 0.00 0.00 0.00 0.00 0.00 0.00 0.00 0.00 0.00 0.00 0.00 0.00 0.00 0.00 0.00 0.00 0.00 0.00 0.00 0.00 0.00 0.00 0.00 0.00 0.00 0.00 0.00 0.00 0.00 0.00 0.00 0.00 0.00 0.00 0.00 0.00
0.00 0.00 0.00 0.00 0.00 0.00 0.00 0.00 0.00 0.00 0.00 0.00 0.00 0.00 0.00 0.00 0.00 0.00 0.00 0.00 0.00 0.00 0.00 0.00 0.00 0.00 0.00 0.00 0.00 0.00 0.00 0.00 0.00 0.00 0.00 0.00 0.00 0.00 0.00 0.00 0.00 0.00 0.00 0.00
0.00 0.00 0.00 0.00 0.00 0.00 0.00 0.00 0.00 0.00 0.00 0.00 0.00 0.00 0.00 0.00 0.00 0.00 0.00 0.00 0.00 0.00 0.00 0.00 0.00 0.00 0.00 0.00 0.00 0.00 0.00 0.00 0.00 0.00 0.00 0.00 0.00 0.00 0.00 0.00 0.00 0.00 0.00 0.00
0.00 0.00 0.00 0.00 0.00 0.00 0.00 0.00 0.00 0.00 0.00 0.00 0.00 0.00 0.00 0.00 0.00 0.00 0.00 0.00 0.00 0.00 0.00 0.00 0.00 0.00 0.00 0.00 0.00 0.00 0.00 0.00 0.00 0.00 0.00 0.00 0.00 0.00 0.00 0.00 0.00 0.00 0.00 0.00
0.00 0.00 0.00 0.00 0.00 0.00 0.00 0.00 0.00 0.00 0.00 0.00 0.00 0.00 0.00 0.00 0.00 0.00 0.00 0.00 0.00 0.00 0.00 0.00 0.00 0.00 0.00 0.00 0.00 0.00 0.00 0.00 0.00 0.00 0.00 0.00 0.00 0.00 0.00 0.00 0.00 0.00 0.00 0.00
0.00 0.00 0.00 0.00 0.00 0.00 0.00 0.00 0.00 0.00 0.00 0.00 0.00 0.00 0.00 0.00 0.00 0.00 0.00 0.00 0.00 0.00 0.00 0.00 0.00 0.01 0.00 0.00 0.00 0.00 0.00 0.00 0.00 0.00 0.00 0.00 0.00 0.00 0.00 0.00 0.00 0.00 0.00 0.00
0.00 0.00 0.00 0.00 0.00 0.00 0.00 0.00 0.00 0.00 0.00 0.00 0.00 0.00 0.00 0.00 0.00 0.00 0.00 0.00 0.00 0.00 0.00 0.00 0.00 0.01 0.00 0.00 0.00 0.00 0.00 0.00 0.00 0.00 0.00 0.00 0.00 0.00 0.00 0.00 0.00 0.00 0.00 0.00
0.00 0.00 0.00 0.00 0.00 0.00 0.00 0.00 0.00 0.00 0.00 0.00 0.00 0.00 0.00 0.00 0.00 0.00 0.00 0.00 0.00 0.00 0.00 0.00 0.00 0.00 0.00 0.00 0.00 0.00 0.00 0.00 0.00 0.00 0.00 0.00 0.00 0.00 0.00 0.00 0.00 0.00 0.00 0.00
0.00 0.00 0.00 0.00 0.00 0.00 0.00 0.00 0.00 0.00 0.00 0.00 0.00 0.00 0.00 0.00 0.00 0.00 0.00 0.00 0.00 0.00 0.00 0.00 0.00 0.00 0.00 0.00 0.00 0.00 0.00 0.00 0.00 0.00 0.00 0.00 0.00 0.00 0.00 0.00 0.00 0.00 0.00 0.00
0.00 0.00 0.00 0.00 0.00 0.00 0.00 0.00 0.00 0.00 0.00 0.00 0.00 0.00 0.00 0.00 0.00 0.00 0.00 0.00 0.00 0.00 0.00 0.00 0.00 0.00 0.00 0.00 0.00 0.00 0.00 0.00 0.00 0.00 0.00 0.00 0.00 0.00 0.00 0.00 0.00 0.00 0.00 0.00
MSLP
1030.73 1031.44 1032.63 1033.45 1034.17 1035.01 1035.93 1036.39 1037.98 1038.79 1040.02 1040.18 1040.32 1040.08 1039.25 1038.24 1037.44 1036.46 1035.45 1034.58 1033.82 1032.87 1031.75 1030.69 1029.53 1028.29 1027.17 1026.00 1024.67 1023.35 1021.68 1020.24 1018.78 1017.34 1015.91 1014.46 1012.80 1011.24 1010.12 1008.97 1008.01 1007.17 1006.47 1005.19
1030.17 1030.55 1031.65 1032.98 1033.59 1034.40 1035.61 1036.91 1038.17 1039.50 1040.50 1040.43 1040.70 1040.29 1039.72 1038.86 1037.95 1036.83 1035.69 1034.68 1033.73 1032.71 1031.71 1030.65 1029.55 1028.29 1027.05 1025.79 1024.28 1022.86 1021.44 1019.95 1018.59 1016.94 1014.85 1013.10 1011.55 1010.33 1008.89 1007.39 1006.62 1005.84 1005.01 1004.02
1029.51 1030.26 1031.35 1033.00 1033.41 1034.36 1035.66 1036.96 1038.07 1039.73 1040.43 1041.22 1041.29 1040.68 1040.16 1039.09 1038.17 1037.18 1035.94 1034.80 1033.71 1032.75 1031.77 1030.76 1029.60 1028.48 1027.16 1025.71 1024.15 1022.72 1021.32 1019.87 1018.11 1016.23 1014.26 1012.48 1010.70 1008.92 1007.28 1006.17 1005.45 1004.55 1003.75 1003.18
1029.28 1030.60 1032.25 1033.47 1033.64 1034.16 1035.55 1037.13 1038.25 1039.34 1040.36 1040.99 1041.23 1040.46 1040.28 1039.02 1038.37 1037.24 1036.00 1034.82 1033.74 1032.77 1031.74 1030.72 1029.59 1028.42 1027.09 1025.58 1024.14 1022.73 1021.17 1019.41 1017.59 1015.73 1013.61 1011.54 1009.59 1008.05 1006.42 1005.25 1004.23 1003.45 1002.80 1001.89
1029.48 1031.36 1033.21 1034.12 1034.91 1035.62 1036.14 1037.46 1038.32 1039.18 1039.90 1040.39 1040.18 1039.97 1039.62 1038.85 1038.09 1037.29 1035.99 1034.95 1033.87 1032.82 1031.89 1030.68 1029.57 1028.37 1027.04 1025.50 1024.12 1022.71 1021.07 1019.23 1017.13 1015.11 1013.16 1011.17 1009.32 1007.43 1005.85 1004.42 1003.40 1002.71 1002.07 1001.30
1030.80 1032.54 1034.34 1035.59 1035.96 1036.13 1036.49 1037.54 1038.22 1038.89 1039.66 1040.06 1039.94 1040.31 1040.12 1038.65 1037.77 1036.78 1035.87 1034.87 1033.82 1032.87 1031.89 1030.74 1029.52 1028.38 1027.10 1025.62 1024.18 1022.57 1020.90 1019.07 1017.10 1014.96 1012.98 1011.24 1009.60 1007.53 1005.74 1004.23 1003.15 1002.48 1002.00 1000.88
1032.21 1033.78 1036.01 1037.01 1037.07 1036.81 1037.57 1038.67 1038.27 1038.82 1039.38 1039.84 1040.32 1040.12 1039.16 1038.18 1037.47 1036.78 1035.90 1034.80 1033.78 1032.98 1031.99 1030.92 1029.71 1028.56 1027.21 1025.77 1024.33 1022.84 1021.00 1019.04 1017.15 1015.33 1013.53 1011.69 1009.94 1007.97 1006.27 1004.84 1003.92 1002.91 1001.87 1000.55
1035.00 1036.25 1038.02 1037.96 1037.87 1038.23 1038.79 1038.52 1038.75 1039.05 1039.31 1039.50 1039.54 1039.14 1038.67 1037.91 1037.36 1036.61 1035.78 1034.73 1033.91 1033.10 1032.05 1030.96 1029.87 1028.75 1027.41 1025.93 1024.48 1022.86 1021.08 1019.30 1017.27 1015.54 1014.03 1012.40 1010.45 1008.34 1006.83 1005.74 1005.01 1003.70 1002.76 1001.68
1038.43 1038.87 1039.28 1039.26 1039.33 1039.35 1039.20 1039.19 1039.26 1039.45 1039.50 1039.45 1039.26 1038.96 1038.56 1038.03 1037.45 1036.75 1035.98 1035.05 1034.21 1033.42 1032.32 1031.17 1030.07 1028.98 1027.67 1026.23 1024.69 1023.02 1021.36 1019.67 1018.00 1016.53 1014.70 1013.31 1011.76 1009.95 1008.38 1006.95 1005.63 1004.72 1003.97 1003.04
1039.87 1040.39 1040.26 1040.20 1040.17 1040.13 1039.96 1039.94 1039.88 1039.87 1039.78 1039.63 1039.55 1039.22 1038.81 1038.30 1037.68 1036.99 1036.21 1035.28 1034.51 1033.59 1032.65 1031.51 1030.33 1029.17 1028.16 1026.68 1025.18 1023.40 1021.95 1020.52 1018.78 1017.21 1015.71 1014.19 1012.97 1011.70 1010.26 1008.21 1007.08 1006.56 1005.37 1005.00
1041.58 1041.41 1041.20 1041.00 1040.95 1040.88 1040.64 1040.42 1040.32 1040.28 1040.17 1039.99 1039.84 1039.53 1039.20 1038.66 1037.96 1037.26 1036.48 1035.69 1034.92 1034.02 1033.03 1031.94 1030.72 1029.45 1028.23 1026.98 1025.59 1024.00 1022.61 1021.18 1019.91 1018.51 1016.69 1015.54 1014.34 1013.18 1011.73 1010.30 1009.41 1007.84 1006.53 1005.30
1042.77 1042.52 1042.26 1041.76 1041.54 1041.37 1041.21 1040.97 1040.83 1040.77 1040.54 1040.31 1040.13 1039.86 1039.45 1038.92 1038.22 1037.54 1036.67 1036.04 1035.25 1034.35 1033.35 1032.18 1031.09 1029.88 1028.51 1027.37 1026.13 1025.00 1023.39 1021.80 1020.66 1019.54 1018.34 1017.14 1015.80 1014.35 1012.96 1012.00 1010.74 1009.29 1008.34 1007.03
1043.28 1042.66 1042.26 1042.01 1041.76 1041.75 1041.74 1041.36 1041.03 1041.00 1040.95 1040.93 1040.34 1040.11 1039.69 1039.23 1038.58 1037.61 1037.18 1036.45 1035.69 1034.86 1033.78 1032.64 1031.34 1030.08 1028.94 1027.71 1026.48 1025.40 1024.57 1022.87 1021.67 1020.71 1019.63 1018.45 1017.01 1016.02 1014.72 1012.96 1011.72 1010.46 1009.23 1008.01
1043.19 1042.67 1042.52 1042.17 1042.13 1041.87 1041.76 1041.48 1041.29 1041.22 1041.05 1041.01 1040.71 1040.03 1039.78 1039.50 1038.76 1038.08 1037.45 1036.72 1035.82 1034.91 1033.89 1032.85 1031.72 1030.43 1029.21 1028.16 1027.05 1026.09 1025.12 1023.57 1022.68 1021.63 1020.50 1019.42 1018.38 1017.71 1016.43 1015.18 1013.94 1012.72 1011.80 1011.38
1043.24 1042.89 1042.70 1042.34 1042.00 1041.77 1041.56 1041.43 1041.33 1041.14 1040.84 1040.71 1040.08 1040.19 1039.65 1039.28 1038.68 1038.04 1037.26 1036.68 1036.03 1035.00 1033.96 1032.95 1031.94 1030.68 1029.57 1028.71 1027.61 1026.64 1025.78 1024.35 1023.40 1022.70 1021.52 1020.63 1019.85 1018.87 1017.90 1017.21 1016.36 1015.59 1014.48 1013.38
1043.18 1042.69 1042.37 1042.17 1041.91 1041.65 1041.41 1041.14 1041.15 1040.70 1040.37 1040.20 1040.01 1039.47 1038.89 1038.50 1038.06 1037.49 1036.99 1036.45 1036.21 1035.32 1034.13 1033.16 1032.13 1030.92 1029.93 1029.12 1028.14 1027.23 1026.42 1025.32 1024.23 1023.80 1022.88 1021.86 1021.03 1020.20 1019.38 1018.70 1017.73 1017.17 1016.23 1015.35
1043.08 1042.55 1042.24 1041.92 1041.66 1041.37 1041.14 1040.81 1040.48 1040.12 1039.83 1039.63 1039.33 1038.70 1038.28 1037.92 1037.53 1037.05 1036.55 1035.98 1035.56 1034.92 1033.91 1033.11 1032.09 1031.03 1030.13 1029.48 1028.81 1028.00 1027.13 1026.25 1025.18 1024.47 1023.54 1022.89 1022.41 1021.73 1021.08 1019.80 1019.00 1018.41 1017.72 1017.02
1042.89 1042.47 1042.08 1041.69 1041.32 1040.95 1040.68 1040.36 1040.01 1039.63 1039.31 1038.90 1038.52 1038.17 1037.82 1037.66 1037.35 1036.80 1036.14 1035.59 1034.94 1034.27 1033.43 1032.60 1031.73 1030.81 1030.24 1029.56 1028.96 1028.36 1027.73 1027.00 1026.18 1025.42 1024.52 1023.69 1023.08 1022.48 1021.97 1021.52 1021.18 1020.44 1019.72 1019.02
1042.54 1042.14 1041.70 1041.31 1040.95 1040.72 1040.39 1040.01 1039.63 1039.22 1038.86 1038.44 1038.02 1037.73 1037.35 1036.96 1036.62 1036.19 1035.70 1035.25 1034.73 1034.14 1033.06 1032.30 1031.55 1030.89 1030.38 1029.45 1028.82 1028.91 1028.43 1027.83 1027.17 1026.37 1025.46 1025.03 1024.48 1024.01 1023.55 1023.01 1022.47 1021.81 1021.13 1020.51
1042.28 1041.84 1041.38 1040.92 1040.57 1040.31 1039.96 1039.60 1039.26 1038.88 1038.43 1038.03 1037.57 1037.20 1036.88 1036.48 1036.12 1035.73 1035.27 1034.91 1034.32 1033.74 1032.73 1031.96 1031.30 1030.77 1030.38 1029.98 1029.31 1029.28 1029.00 1028.68 1028.15 1027.57 1026.82 1026.28 1025.70 1025.35 1024.93 1024.35 1023.74 1023.06 1022.42 1021.96
1042.00 1041.53 1041.12 1040.68 1040.23 1039.87 1039.52 1039.15 1038.84 1038.44 1037.93 1037.60 1037.23 1036.79 1036.40 1036.01 1035.67 1035.27 1034.88 1034.34 1033.47 1032.98 1032.08 1031.55 1031.20 1030.47 1030.11 1030.12 1030.15 1029.80 1029.53 1029.32 1029.03 1028.68 1028.17 1027.65 1027.17 1026.40 1025.80 1025.44 1024.86 1024.27 1023.65 1023.13
1041.55 1041.16 1040.75 1040.33 1039.88 1039.43 1039.03 1038.69 1038.34 1037.93 1037.49 1037.08 1036.66 1036.28 1035.92 1035.49 1035.09 1034.73 1034.30 1033.93 1033.04 1032.43 1031.72 1031.47 1031.11 1030.11 1029.10 1030.01 1030.50 1030.35 1030.13 1029.89 1029.76 1029.53 1029.15 1028.66 1028.19 1027.60 1027.15 1026.70 1025.96 1025.28 1024.64 1024.10
1041.14 1040.71 1040.25 1039.81 1039.37 1038.97 1038.53 1038.13 1037.71 1037.36 1036.99 1036.54 1036.13 1035.72 1035.36 1034.91 1034.53 1034.28 1033.72 1032.99 1032.57 1031.97 1031.23 1031.13 1030.44 1029.35 1029.56 1030.48 1030.53 1030.57 1030.49 1030.26 1030.12 1029.99 1029.75 1029.33 1029.03 1028.46 1027.99 1027.45 1026.56 1025.90 1025.28 1024.81
1040.58 1040.10 1039.66 1039.18 1038.81 1038.52 1038.08 1037.43 1037.05 1036.64 1036.31 1035.84 1035.35 1034.86 1034.58 1034.18 1033.66 1033.24 1032.90 1032.42 1031.93 1031.52 1030.93 1030.60 1029.96 1029.22 1029.05 1030.37 1030.52 1030.51 1030.38 1030.21 1030.11 1030.03 1029.83 1029.49 1029.34 1028.98 1028.56 1028.02 1027.39 1026.64 1026.01 1025.46
1040.14 1039.67 1039.20 1038.71 1038.25 1037.74 1037.29 1036.87 1036.46 1035.97 1035.50 1035.03 1034.54 1034.01 1033.54 1033.19 1033.10 1032.46 1032.19 1031.89 1031.51 1031.10 1030.90 1030.52 1029.98 1029.73 1030.33 1030.38 1030.50 1030.40 1030.25 1030.10 1029.96 1029.95 1029.90 1029.82 1029.65 1029.35 1028.91 1028.28 1027.71 1027.08 1026.69 1026.17
1039.64 1039.12 1038.58 1038.00 1037.51 1037.11 1036.72 1036.45 1035.99 1035.46 1034.96 1034.36 1033.88 1033.37 1032.86 1032.45 1032.14 1031.82 1031.60 1031.31 1031.04 1030.82 1030.80 1030.88 1030.80 1030.40 1030.39 1030.27 1030.11 1030.02 1029.94 1029.85 1029.81 1029.78 1029.73 1029.86 1029.88 1029.57 1029.18 1028.58 1027.90 1027.41 1026.99 1026.49
1039.05 1038.42 1038.06 1037.35 1037.04 1036.61 1036.21 1035.79 1035.30 1035.05 1034.63 1034.18 1033.44 1032.79 1032.13 1031.72 1031.56 1031.16 1031.01 1030.92 1030.79 1030.65 1030.58 1030.57 1030.46 1030.24 1030.00 1029.81 1029.96 1029.63 1029.60 1029.58 1029.07 1029.12 1029.45 1029.73 1029.79 1029.70 1029.36 1028.89 1028.24 1027.72 1027.33 1026.79
Thickness
5218 5215 5184 5192 5167 5157 5174 5145 5181 5152 5124 5118 5117 5115 5119 5122 5132 5135 5133 5134 5133 5135 5140 5146 5153 5161 5169 5179 5188 5198 5213 5228 5247 5267 5290 5316 5345 5376 5408 5439 5466 5490 5511 5537
5216 5221 5213 5198 5188 5162 5153 5134 5122 5059 5098 5103 5101 5100 5116 5118 5120 5123 5124 5125 5127 5130 5134 5140 5145 5153 5162 5170 5181 5191 5203 5217 5232 5253 5278 5304 5331 5357 5388 5425 5452 5476 5501 5529
5210 5208 5208 5180 5160 5150 5124 5103 5133 5127 5121 5076 5088 5096 5091 5111 5109 5107 5113 5117 5121 5123 5127 5131 5137 5144 5153 5163 5174 5184 5196 5209 5226 5245 5269 5292 5319 5347 5377 5407 5435 5464 5493 5517
5204 5196 5174 5150 5150 5166 5143 5120 5106 5112 5100 5089 5087 5092 5084 5106 5100 5102 5109 5113 5116 5118 5122 5126 5133 5140 5148 5158 5168 5177 5191 5207 5225 5243 5266 5288 5314 5338 5366 5392 5420 5448 5479 5505
5191 5172 5153 5131 5131 5134 5139 5129 5108 5104 5101 5100 5095 5080 5099 5094 5091 5093 5104 5108 5111 5114 5117 5123 5129 5136 5144 5155 5164 5174 5186 5203 5223 5244 5264 5284 5306 5332 5357 5382 5406 5434 5462 5491
5177 5155 5152 5120 5127 5128 5124 5133 5109 5103 5101 5092 5101 5072 5075 5092 5089 5094 5098 5103 5107 5110 5113 5119 5126 5133 5140 5151 5160 5172 5185 5202 5221 5241 5261 5278 5296 5322 5350 5373 5395 5420 5443 5468
5168 5173 5121 5105 5108 5117 5119 5105 5106 5100 5093 5085 5081 5080 5089 5090 5092 5090 5093 5100 5105 5106 5109 5115 5122 5129 5137 5147 5157 5168 5182 5199 5216 5233 5251 5270 5290 5317 5339 5362 5378 5401 5426 5455
5140 5128 5112 5097 5104 5106 5087 5094 5092 5090 5088 5081 5077 5083 5087 5090 5089 5090 5090 5096 5100 5102 5107 5112 5118 5125 5133 5144 5154 5166 5179 5194 5213 5229 5243 5262 5283 5309 5328 5347 5361 5384 5407 5431
5088 5084 5075 5082 5078 5079 5079 5079 5079 5077 5078 5078 5078 5079 5081 5080 5081 5082 5084 5089 5094 5097 5102 5109 5114 5121 5129 5139 5151 5163 5176 5190 5204 5218 5236 5252 5270 5293 5312 5332 5351 5370 5389 5409
5078 5071 5069 5070 5069 5067 5067 5066 5067 5067 5067 5067 5066 5068 5068 5070 5072 5074 5078 5083 5087 5093 5097 5103 5110 5117 5124 5134 5145 5160 5170 5181 5197 5212 5227 5243 5258 5274 5291 5318 5337 5352 5371 5386
5051 5054 5059 5058 5056 5055 5057 5059 5059 5058 5059 5059 5057 5058 5058 5060 5064 5066 5071 5076 5080 5086 5093 5099 5106 5114 5122 5131 5141 5153 5164 5176 5186 5200 5218 5229 5244 5257 5276 5296 5314 5335 5353 5374
5032 5040 5040 5046 5045 5046 5047 5048 5047 5047 5049 5052 5050 5049 5050 5052 5056 5060 5066 5068 5073 5080 5087 5094 5101 5108 5118 5126 5135 5143 5156 5170 5181 5191 5203 5215 5230 5246 5264 5279 5296 5316 5333 5353
5031 5035 5035 5037 5035 5032 5033 5038 5037 5038 5038 5037 5040 5039 5042 5043 5045 5056 5054 5059 5065 5070 5079 5087 5097 5105 5112 5121 5131 5139 5144 5159 5172 5180 5191 5203 5219 5230 5245 5267 5283 5301 5319 5340
5022 5026 5026 5026 5027 5028 5027 5029 5029 5027 5024 5024 5026 5031 5031 5033 5037 5043 5047 5051 5057 5066 5073 5081 5089 5099 5108 5116 5124 5131 5139 5153 5161 5171 5183 5194 5206 5214 5229 5245 5259 5277 5293 5304
5017 5017 5016 5018 5021 5023 5020 5020 5021 5019 5018 5023 5021 5019 5024 5031 5033 5038 5042 5047 5051 5058 5066 5074 5082 5093 5102 5108 5117 5125 5131 5145 5154 5162 5174 5185 5193 5205 5218 5227 5239 5249 5266 5282
5008 5011 5013 5013 5015 5016 5015 5017 5015 5021 5018 5016 5020 5024 5027 5027 5029 5034 5039 5043 5044 5052 5059 5066 5075 5085 5093 5101 5110 5117 5124 5135 5146 5151 5161 5173 5183 5194 5204 5213 5226 5233 5246 5261
5004 5007 5008 5009 5010 5009 5009 5011 5014 5016 5017 5017 5017 5021 5025 5027 5028 5032 5037 5040 5042 5047 5054 5059 5068 5078 5085 5092 5098 5107 5115 5124 5135 5143 5153 5162 5169 5178 5186 5202 5213 5221 5232 5243
4998 4998 4999 5000 5003 5005 5006 5008 5010 5011 5011 5014 5016 5018 5021 5021 5022 5027 5032 5036 5041 5045 5050 5056 5063 5072 5077 5084 5090 5098 5106 5113 5122 5131 5141 5151 5160 5168 5176 5185 5191 5202 5213 5223
4994 4993 4995 4997 4997 4997 4998 5000 5002 5005 5007 5009 5012 5013 5015 5018 5021 5024 5028 5031 5034 5038 5047 5051 5058 5063 5067 5076 5082 5086 5094 5102 5109 5119 5129 5136 5143 5151 5159 5168 5177 5187 5198 5207
4988 4989 4990 4992 4993 4993 4994 4996 4997 4998 5001 5004 5007 5009 5011 5014 5017 5020 5023 5025 5029 5034 5041 5047 5052 5056 5059 5065 5071 5076 5082 5088 5096 5104 5113 5121 5130 5136 5143 5152 5161 5171 5181 5190
4983 4984 4985 4986 4988 4989 4991 4991 4992 4993 4997 4999 5001 5003 5006 5009 5012 5015 5018 5022 5029 5033 5040 5044 5047 5052 5056 5057 5060 5064 5070 5076 5082 5088 5096 5103 5110 5121 5130 5137 5146 5155 5164 5173
4980 4981 4981 4981 4983 4984 4986 4986 4987 4989 4991 4993 4996 4998 5000 5002 5005 5008 5012 5016 5022 5028 5035 5036 5040 5047 5056 5050 5051 5054 5058 5063 5067 5072 5079 5088 5096 5104 5111 5118 5129 5139 5149 5157
4980 4980 4981 4981 4983 4983 4982 4983 4983 4985 4985 4988 4989 4991 4993 4996 4998 5000 5005 5011 5016 5020 5027 5028 5034 5041 5045 5043 5044 5046 5048 5052 5055 5060 5065 5073 5079 5088 5096 5104 5116 5126 5135 5142
4980 4982 4981 4982 4981 4979 4978 4982 4983 4984 4983 4985 4987 4989 4989 4991 4994 4997 5000 5004 5008 5013 5018 5019 5025 5032 5037 5032 5034 5038 5041 5045 5048 5051 5055 5063 5067 5074 5081 5089 5098 5109 5119 5128
4981 4980 4979 4980 4980 4981 4981 4982 4982 4982 4983 4983 4984 4986 4989 4990 4989 4992 4994 4997 5000 5003 5005 5007 5012 5016 5018 5020 5023 5028 5032 5037 5041 5045 5047 5051 5056 5061 5068 5077 5085 5094 5101 5109
4983 4983 4983 4984 4984 4983 4982 4980 4979 4980 4981 4983 4982 4984 4986 4986 4987 4989 4988 4990 4992 4995 4995 4995 4997 5002 5005 5008 5013 5018 5024 5028 5033 5037 5043 5045 5048 5052 5058 5065 5072 5079 5086 5095
4987 4990 4985 4986 4983 4982 4981 4981 4980 4976 4976 4976 4978 4979 4983 4983 4982 4984 4984 4982 4982 4982 4983 4985 4987 4990 4993 4997 5001 5006 5011 5017 5023 5029 5033 5038 5042 5045 5050 5055 5061 5067 5073 5081